Year,Month,Day,Hour,Minute,Value (Times are PST for temperature in C)
2012,10,01,00,00,10.10
2012,10,01,00,01,10.10
2012,10,01,00,02,10.10
2012,10,01,00,03,10.10
2012,10,01,00,04,10.10
2012,10,01,00,05,10.10
2012,10,01,00,06,10.10
2012,10,01,00,07,10.10
2012,10,01,00,08,10.10
2012,10,01,00,09,10.10
2012,10,01,00,10,10.20
2012,10,01,00,11,10.20
2012,10,01,00,12,10.20
2012,10,01,00,13,10.20
2012,10,01,00,14,10.20
2012,10,01,00,15,10.30
2012,10,01,00,16,10.30
2012,10,01,00,17,10.30
2012,10,01,00,18,10.30
2012,10,01,00,19,10.20
2012,10,01,00,20,10.20
2012,10,01,00,21,10.20
2012,10,01,00,22,10.20
2012,10,01,00,23,10.20
2012,10,01,00,24,10.20
2012,10,01,00,25,10.20
2012,10,01,00,26,10.20
2012,10,01,00,27,10.10
2012,10,01,00,28,10.10
2012,10,01,00,29,10.10
2012,10,01,00,30,10.10
2012,10,01,00,31,10.10
2012,10,01,00,32,10.10
2012,10,01,00,33,10.10
2012,10,01,00,34,10.10
2012,10,01,00,35,10.10
2012,10,01,00,36,10.10
2012,10,01,00,37,10.10
2012,10,01,00,38,10.10
2012,10,01,00,39,10.00
2012,10,01,00,40,10.00
2012,10,01,00,41,10.10
2012,10,01,00,42,10.10
2012,10,01,00,43,10.10
2012,10,01,00,44,10.10
2012,10,01,00,45,10.10
2012,10,01,00,46,10.20
2012,10,01,00,47,10.20
2012,10,01,00,48,10.20
2012,10,01,00,49,10.20
2012,10,01,00,50,10.20
2012,10,01,00,51,10.30
2012,10,01,00,52,10.30
2012,10,01,00,53,10.30
2012,10,01,00,54,10.30
2012,10,01,00,55,10.30
2012,10,01,00,56,10.30
2012,10,01,00,57,10.30
2012,10,01,00,58,10.30
2012,10,01,00,59,10.30
2012,10,01,01,00,10.30
2012,10,01,01,01,10.30
2012,10,01,01,02,10.30
2012,10,01,01,03,10.30
2012,10,01,01,04,10.30
2012,10,01,01,05,10.30
2012,10,01,01,06,10.30
2012,10,01,01,07,10.30
2012,10,01,01,08,10.30
2012,10,01,01,09,10.30
2012,10,01,01,10,10.40
2012,10,01,01,11,10.40
2012,10,01,01,12,10.40
2012,10,01,01,13,10.40
2012,10,01,01,14,10.30
2012,10,01,01,15,10.40
2012,10,01,01,16,10.40
2012,10,01,01,17,10.40
2012,10,01,01,18,10.50
2012,10,01,01,19,10.50
2012,10,01,01,20,10.60
2012,10,01,01,21,10.60
2012,10,01,01,22,10.60
2012,10,01,01,23,10.60
2012,10,01,01,24,10.60
2012,10,01,01,25,10.60
2012,10,01,01,26,10.60
2012,10,01,01,27,10.60
2012,10,01,01,28,10.60
2012,10,01,01,29,10.60
2012,10,01,01,30,10.70
2012,10,01,01,31,10.70
2012,10,01,01,32,10.60
2012,10,01,01,33,10.60
2012,10,01,01,34,10.60
2012,10,01,01,35,10.60
2012,10,01,01,36,10.60
2012,10,01,01,37,10.60
2012,10,01,01,38,10.60
2012,10,01,01,39,10.60
2012,10,01,01,40,10.60
2012,10,01,01,41,10.60
2012,10,01,01,42,10.60
2012,10,01,01,43,10.60
2012,10,01,01,44,10.50
2012,10,01,01,45,10.50
2012,10,01,01,46,10.50
2012,10,01,01,47,10.40
2012,10,01,01,48,10.40
2012,10,01,01,49,10.40
2012,10,01,01,50,10.40
2012,10,01,01,51,10.40
2012,10,01,01,52,10.40
2012,10,01,01,53,10.40
2012,10,01,01,54,10.30
2012,10,01,01,55,10.30
2012,10,01,01,56,10.30
2012,10,01,01,57,10.30
2012,10,01,01,58,10.30
2012,10,01,01,59,10.30
2012,10,01,02,00,10.30
2012,10,01,02,01,10.30
2012,10,01,02,02,10.30
2012,10,01,02,03,10.20
2012,10,01,02,04,10.20
2012,10,01,02,05,10.20
2012,10,01,02,06,10.20
2012,10,01,02,07,10.10
2012,10,01,02,08,10.10
2012,10,01,02,09,10.10
2012,10,01,02,10,10.10
2012,10,01,02,11,10.00
2012,10,01,02,12,10.00
2012,10,01,02,13,10.00
2012,10,01,02,14,9.90
2012,10,01,02,15,9.90
2012,10,01,02,16,9.90
2012,10,01,02,17,9.90
2012,10,01,02,18,9.90
2012,10,01,02,19,9.80
2012,10,01,02,20,9.80
2012,10,01,02,21,9.80
2012,10,01,02,22,9.70
2012,10,01,02,23,9.70
2012,10,01,02,24,9.70
2012,10,01,02,25,9.70
2012,10,01,02,26,9.60
2012,10,01,02,27,9.60
2012,10,01,02,28,9.60
2012,10,01,02,29,9.60
2012,10,01,02,30,9.50
2012,10,01,02,31,9.50
2012,10,01,02,32,9.40
2012,10,01,02,33,9.30
2012,10,01,02,34,9.30
2012,10,01,02,35,9.30
2012,10,01,02,36,9.20
2012,10,01,02,37,9.20
2012,10,01,02,38,9.20
2012,10,01,02,39,9.10
2012,10,01,02,40,9.10
2012,10,01,02,41,9.10
2012,10,01,02,42,9.10
2012,10,01,02,43,9.10
2012,10,01,02,44,9.10
2012,10,01,02,45,9.10
2012,10,01,02,46,9.10
2012,10,01,02,47,9.10
2012,10,01,02,48,9.20
2012,10,01,02,49,9.20
2012,10,01,02,50,9.20
2012,10,01,02,51,9.20
2012,10,01,02,52,9.20
2012,10,01,02,53,9.20
2012,10,01,02,54,9.10
2012,10,01,02,55,9.20
2012,10,01,02,56,9.10
2012,10,01,02,57,9.10
2012,10,01,02,58,9.20
2012,10,01,02,59,9.20
2012,10,01,03,00,9.20
2012,10,01,03,01,9.10
2012,10,01,03,02,9.20
2012,10,01,03,03,9.20
2012,10,01,03,04,9.20
2012,10,01,03,05,9.20
2012,10,01,03,06,9.10
2012,10,01,03,07,9.10
2012,10,01,03,08,9.10
2012,10,01,03,09,9.10
2012,10,01,03,10,9.10
2012,10,01,03,11,9.10
2012,10,01,03,12,9.10
2012,10,01,03,13,9.10
2012,10,01,03,14,9.10
2012,10,01,03,15,9.10
2012,10,01,03,16,9.10
2012,10,01,03,17,9.10
2012,10,01,03,18,9.10
2012,10,01,03,19,9.10
2012,10,01,03,20,9.10
2012,10,01,03,21,9.10
2012,10,01,03,22,9.10
2012,10,01,03,23,9.10
2012,10,01,03,24,9.10
2012,10,01,03,25,9.10
2012,10,01,03,26,9.20
2012,10,01,03,27,9.20
2012,10,01,03,28,9.20
2012,10,01,03,29,9.20
2012,10,01,03,30,9.20
2012,10,01,03,31,9.20
2012,10,01,03,32,9.10
2012,10,01,03,33,9.10
2012,10,01,03,34,9.10
2012,10,01,03,35,9.10
2012,10,01,03,36,9.10
2012,10,01,03,37,9.10
2012,10,01,03,38,9.10
2012,10,01,03,39,9.10
2012,10,01,03,40,9.10
2012,10,01,03,41,9.10
2012,10,01,03,42,9.10
2012,10,01,03,43,9.10
2012,10,01,03,44,9.10
2012,10,01,03,45,9.10
2012,10,01,03,46,9.10
2012,10,01,03,47,9.10
2012,10,01,03,48,9.10
2012,10,01,03,49,9.10
2012,10,01,03,50,9.00
2012,10,01,03,51,9.00
2012,10,01,03,52,8.90
2012,10,01,03,53,8.90
2012,10,01,03,54,8.90
2012,10,01,03,55,8.90
2012,10,01,03,56,8.90
2012,10,01,03,57,8.90
2012,10,01,03,58,8.90
2012,10,01,03,59,8.90
2012,10,01,04,00,8.90
2012,10,01,04,01,8.90
2012,10,01,04,02,8.90
2012,10,01,04,03,8.90
2012,10,01,04,04,8.90
2012,10,01,04,05,8.90
2012,10,01,04,06,8.90
2012,10,01,04,07,8.90
2012,10,01,04,08,8.90
2012,10,01,04,09,8.90
2012,10,01,04,10,8.90
2012,10,01,04,11,8.90
2012,10,01,04,12,8.80
2012,10,01,04,13,8.80
2012,10,01,04,14,8.80
2012,10,01,04,15,8.80
2012,10,01,04,16,8.80
2012,10,01,04,17,8.90
2012,10,01,04,18,8.90
2012,10,01,04,19,8.90
2012,10,01,04,20,8.90
2012,10,01,04,21,8.90
2012,10,01,04,22,8.90
2012,10,01,04,23,8.90
2012,10,01,04,24,8.90
2012,10,01,04,25,8.90
2012,10,01,04,26,8.80
2012,10,01,04,27,8.80
2012,10,01,04,28,8.80
2012,10,01,04,29,8.80
2012,10,01,04,30,8.80
2012,10,01,04,31,8.90
2012,10,01,04,32,8.90
2012,10,01,04,33,8.90
2012,10,01,04,34,8.80
2012,10,01,04,35,8.80
2012,10,01,04,36,8.80
2012,10,01,04,37,8.80
2012,10,01,04,38,8.80
2012,10,01,04,39,8.80
2012,10,01,04,40,8.80
2012,10,01,04,41,8.80
2012,10,01,04,42,8.80
2012,10,01,04,43,8.80
2012,10,01,04,44,8.80
2012,10,01,04,45,8.80
2012,10,01,04,46,8.90
2012,10,01,04,47,8.90
2012,10,01,04,48,8.90
2012,10,01,04,49,8.90
2012,10,01,04,50,8.80
2012,10,01,04,51,8.80
2012,10,01,04,52,8.80
2012,10,01,04,53,8.80
2012,10,01,04,54,8.80
2012,10,01,04,55,8.70
2012,10,01,04,56,8.70
2012,10,01,04,57,8.60
2012,10,01,04,58,8.60
2012,10,01,04,59,8.60
2012,10,01,05,00,8.60
2012,10,01,05,01,8.60
2012,10,01,05,02,8.50
2012,10,01,05,03,8.50
2012,10,01,05,04,8.50
2012,10,01,05,05,8.50
2012,10,01,05,06,8.50
2012,10,01,05,07,8.50
2012,10,01,05,08,8.50
2012,10,01,05,09,8.50
2012,10,01,05,10,8.50
2012,10,01,05,11,8.60
2012,10,01,05,12,8.60
2012,10,01,05,13,8.60
2012,10,01,05,14,8.60
2012,10,01,05,15,8.60
2012,10,01,05,16,8.50
2012,10,01,05,17,8.50
2012,10,01,05,18,8.50
2012,10,01,05,19,8.40
2012,10,01,05,20,8.40
2012,10,01,05,21,8.40
2012,10,01,05,22,8.50
2012,10,01,05,23,8.50
2012,10,01,05,24,8.40
2012,10,01,05,25,8.40
2012,10,01,05,26,8.40
2012,10,01,05,27,8.30
2012,10,01,05,28,8.30
2012,10,01,05,29,8.30
2012,10,01,05,30,8.30
2012,10,01,05,31,8.30
2012,10,01,05,32,8.30
2012,10,01,05,33,8.30
2012,10,01,05,34,8.40
2012,10,01,05,35,8.30
2012,10,01,05,36,8.30
2012,10,01,05,37,8.30
2012,10,01,05,38,8.30
2012,10,01,05,39,8.40
2012,10,01,05,40,8.40
2012,10,01,05,41,8.40
2012,10,01,05,42,8.40
2012,10,01,05,43,8.40
2012,10,01,05,44,8.30
2012,10,01,05,45,8.30
2012,10,01,05,46,8.30
2012,10,01,05,47,8.30
2012,10,01,05,48,8.30
2012,10,01,05,49,8.30
2012,10,01,05,50,8.30
2012,10,01,05,51,8.30
2012,10,01,05,52,8.30
2012,10,01,05,53,8.30
2012,10,01,05,54,8.30
2012,10,01,05,55,8.40
2012,10,01,05,56,8.40
2012,10,01,05,57,8.30
2012,10,01,05,58,8.30
2012,10,01,05,59,8.30
2012,10,01,06,00,8.20
2012,10,01,06,01,8.20
2012,10,01,06,02,8.20
2012,10,01,06,03,8.10
2012,10,01,06,04,8.10
2012,10,01,06,05,8.10
2012,10,01,06,06,8.10
2012,10,01,06,07,8.20
2012,10,01,06,08,8.20
2012,10,01,06,09,8.20
2012,10,01,06,10,8.30
2012,10,01,06,11,8.30
2012,10,01,06,12,8.30
2012,10,01,06,13,8.30
2012,10,01,06,14,8.30
2012,10,01,06,15,8.30
2012,10,01,06,16,8.30
2012,10,01,06,17,8.30
2012,10,01,06,18,8.30
2012,10,01,06,19,8.40
2012,10,01,06,20,8.40
2012,10,01,06,21,8.40
2012,10,01,06,22,8.40
2012,10,01,06,23,8.30
2012,10,01,06,24,8.30
2012,10,01,06,25,8.30
2012,10,01,06,26,8.30
2012,10,01,06,27,8.30
2012,10,01,06,28,8.30
2012,10,01,06,29,8.30
2012,10,01,06,30,8.30
2012,10,01,06,31,8.30
2012,10,01,06,32,8.30
2012,10,01,06,33,8.30
2012,10,01,06,34,8.30
2012,10,01,06,35,8.30
2012,10,01,06,36,8.30
2012,10,01,06,37,8.30
2012,10,01,06,38,8.20
2012,10,01,06,39,8.20
2012,10,01,06,40,8.20
2012,10,01,06,41,8.20
2012,10,01,06,42,8.20
2012,10,01,06,43,8.20
2012,10,01,06,44,8.20
2012,10,01,06,45,8.20
2012,10,01,06,46,8.30
2012,10,01,06,47,8.30
2012,10,01,06,48,8.40
2012,10,01,06,49,8.40
2012,10,01,06,50,8.40
2012,10,01,06,51,8.40
2012,10,01,06,52,8.40
2012,10,01,06,53,8.40
2012,10,01,06,54,8.40
2012,10,01,06,55,8.40
2012,10,01,06,56,8.40
2012,10,01,06,57,8.40
2012,10,01,06,58,8.40
2012,10,01,06,59,8.40
2012,10,01,07,00,8.50
2012,10,01,07,01,8.50
2012,10,01,07,02,8.60
2012,10,01,07,03,8.60
2012,10,01,07,04,8.70
2012,10,01,07,05,8.60
2012,10,01,07,06,8.60
2012,10,01,07,07,8.60
2012,10,01,07,08,8.60
2012,10,01,07,09,8.70
2012,10,01,07,10,8.70
2012,10,01,07,11,8.70
2012,10,01,07,12,8.70
2012,10,01,07,13,8.70
2012,10,01,07,14,8.70
2012,10,01,07,15,8.70
2012,10,01,07,16,8.70
2012,10,01,07,17,8.70
2012,10,01,07,18,8.80
2012,10,01,07,19,8.80
2012,10,01,07,20,8.80
2012,10,01,07,21,8.90
2012,10,01,07,22,8.90
2012,10,01,07,23,8.90
2012,10,01,07,24,8.90
2012,10,01,07,25,8.90
2012,10,01,07,26,8.90
2012,10,01,07,27,8.90
2012,10,01,07,28,9.00
2012,10,01,07,29,9.00
2012,10,01,07,30,9.00
2012,10,01,07,31,9.10
2012,10,01,07,32,9.10
2012,10,01,07,33,9.10
2012,10,01,07,34,9.10
2012,10,01,07,35,9.10
2012,10,01,07,36,9.00
2012,10,01,07,37,9.00
2012,10,01,07,38,9.00
2012,10,01,07,39,9.10
2012,10,01,07,40,9.10
2012,10,01,07,41,9.10
2012,10,01,07,42,9.10
2012,10,01,07,43,9.10
2012,10,01,07,44,9.10
2012,10,01,07,45,9.10
2012,10,01,07,46,9.10
2012,10,01,07,47,9.10
2012,10,01,07,48,9.10
2012,10,01,07,49,9.10
2012,10,01,07,50,9.10
2012,10,01,07,51,9.00
2012,10,01,07,52,9.00
2012,10,01,07,53,9.00
2012,10,01,07,54,8.90
2012,10,01,07,55,8.90
2012,10,01,07,56,8.90
2012,10,01,07,57,8.90
2012,10,01,07,58,8.90
2012,10,01,07,59,8.90
2012,10,01,08,00,8.90
2012,10,01,08,01,9.00
2012,10,01,08,02,9.00
2012,10,01,08,03,9.10
2012,10,01,08,04,9.10
2012,10,01,08,05,9.20
2012,10,01,08,06,9.20
2012,10,01,08,07,9.30
2012,10,01,08,08,9.30
2012,10,01,08,09,9.30
2012,10,01,08,10,9.30
2012,10,01,08,11,9.40
2012,10,01,08,12,9.40
2012,10,01,08,13,9.50
2012,10,01,08,14,9.50
2012,10,01,08,15,9.60
2012,10,01,08,16,9.60
2012,10,01,08,17,9.70
2012,10,01,08,18,9.80
2012,10,01,08,19,9.90
2012,10,01,08,20,10.00
2012,10,01,08,21,10.10
2012,10,01,08,22,10.20
2012,10,01,08,23,10.20
2012,10,01,08,24,10.30
2012,10,01,08,25,10.30
2012,10,01,08,26,10.40
2012,10,01,08,27,10.50
2012,10,01,08,28,10.60
2012,10,01,08,29,10.70
2012,10,01,08,30,10.70
2012,10,01,08,31,10.80
2012,10,01,08,32,10.80
2012,10,01,08,33,10.90
2012,10,01,08,34,11.00
2012,10,01,08,35,11.10
2012,10,01,08,36,11.10
2012,10,01,08,37,11.20
2012,10,01,08,38,11.30
2012,10,01,08,39,11.30
2012,10,01,08,40,11.40
2012,10,01,08,41,11.50
2012,10,01,08,42,11.60
2012,10,01,08,43,11.70
2012,10,01,08,44,11.80
2012,10,01,08,45,11.90
2012,10,01,08,46,11.90
2012,10,01,08,47,12.00
2012,10,01,08,48,12.00
2012,10,01,08,49,12.10
2012,10,01,08,50,12.10
2012,10,01,08,51,12.20
2012,10,01,08,52,12.20
2012,10,01,08,53,12.20
2012,10,01,08,54,12.20
2012,10,01,08,55,12.20
2012,10,01,08,56,12.30
2012,10,01,08,57,12.30
2012,10,01,08,58,12.30
2012,10,01,08,59,12.40
2012,10,01,09,00,12.50
2012,10,01,09,01,12.50
2012,10,01,09,02,12.60
2012,10,01,09,03,12.60
2012,10,01,09,04,12.70
2012,10,01,09,05,12.70
2012,10,01,09,06,12.80
2012,10,01,09,07,12.80
2012,10,01,09,08,12.80
2012,10,01,09,09,12.90
2012,10,01,09,10,13.00
2012,10,01,09,11,13.00
2012,10,01,09,12,13.10
2012,10,01,09,13,13.10
2012,10,01,09,14,13.20
2012,10,01,09,15,13.20
2012,10,01,09,16,13.20
2012,10,01,09,17,13.30
2012,10,01,09,18,13.30
2012,10,01,09,19,13.30
2012,10,01,09,20,13.30
2012,10,01,09,21,13.40
2012,10,01,09,22,13.40
2012,10,01,09,23,13.40
2012,10,01,09,24,13.40
2012,10,01,09,25,13.40
2012,10,01,09,26,13.40
2012,10,01,09,27,13.30
2012,10,01,09,28,13.30
2012,10,01,09,29,13.30
2012,10,01,09,30,13.30
2012,10,01,09,31,13.30
2012,10,01,09,32,13.30
2012,10,01,09,33,13.30
2012,10,01,09,34,13.30
2012,10,01,09,35,13.30
2012,10,01,09,36,13.30
2012,10,01,09,37,13.30
2012,10,01,09,38,13.30
2012,10,01,09,39,13.30
2012,10,01,09,40,13.30
2012,10,01,09,41,13.30
2012,10,01,09,42,13.30
2012,10,01,09,43,13.30
2012,10,01,09,44,13.30
2012,10,01,09,45,13.40
2012,10,01,09,46,13.40
2012,10,01,09,47,13.40
2012,10,01,09,48,13.50
2012,10,01,09,49,13.50
2012,10,01,09,50,13.60
2012,10,01,09,51,13.60
2012,10,01,09,52,13.70
2012,10,01,09,53,13.70
2012,10,01,09,54,13.70
2012,10,01,09,55,13.80
2012,10,01,09,56,13.80
2012,10,01,09,57,13.80
2012,10,01,09,58,13.90
2012,10,01,09,59,13.90
2012,10,01,10,00,14.00
2012,10,01,10,01,14.00
2012,10,01,10,02,14.00
2012,10,01,10,03,14.10
2012,10,01,10,04,14.10
2012,10,01,10,05,14.20
2012,10,01,10,06,14.20
2012,10,01,10,07,14.20
2012,10,01,10,08,14.20
2012,10,01,10,09,14.30
2012,10,01,10,10,14.20
2012,10,01,10,11,14.10
2012,10,01,10,12,14.10
2012,10,01,10,13,14.00
2012,10,01,10,14,14.00
2012,10,01,10,15,14.00
2012,10,01,10,16,14.10
2012,10,01,10,17,14.10
2012,10,01,10,18,14.20
2012,10,01,10,19,14.20
2012,10,01,10,20,14.20
2012,10,01,10,21,14.20
2012,10,01,10,22,14.30
2012,10,01,10,23,14.40
2012,10,01,10,24,14.40
2012,10,01,10,25,14.50
2012,10,01,10,26,14.60
2012,10,01,10,27,14.60
2012,10,01,10,28,14.70
2012,10,01,10,29,14.80
2012,10,01,10,30,14.80
2012,10,01,10,31,14.90
2012,10,01,10,32,14.90
2012,10,01,10,33,14.90
2012,10,01,10,34,14.90
2012,10,01,10,35,15.00
2012,10,01,10,36,15.00
2012,10,01,10,37,15.00
2012,10,01,10,38,15.00
2012,10,01,10,39,15.00
2012,10,01,10,40,15.00
2012,10,01,10,41,15.00
2012,10,01,10,42,15.10
2012,10,01,10,43,15.10
2012,10,01,10,44,15.10
2012,10,01,10,45,15.20
2012,10,01,10,46,15.20
2012,10,01,10,47,15.30
2012,10,01,10,48,15.30
2012,10,01,10,49,15.40
2012,10,01,10,50,15.40
2012,10,01,10,51,15.50
2012,10,01,10,52,15.50
2012,10,01,10,53,15.60
2012,10,01,10,54,15.60
2012,10,01,10,55,15.60
2012,10,01,10,56,15.60
2012,10,01,10,57,15.60
2012,10,01,10,58,15.60
2012,10,01,10,59,15.60
2012,10,01,11,00,15.60
2012,10,01,11,01,15.50
2012,10,01,11,02,15.50
2012,10,01,11,03,15.50
2012,10,01,11,04,15.40
2012,10,01,11,05,15.30
2012,10,01,11,06,15.20
2012,10,01,11,07,15.00
2012,10,01,11,08,15.00
2012,10,01,11,09,15.00
2012,10,01,11,10,15.00
2012,10,01,11,11,15.00
2012,10,01,11,12,15.00
2012,10,01,11,13,15.00
2012,10,01,11,14,15.00
2012,10,01,11,15,15.00
2012,10,01,11,16,15.00
2012,10,01,11,17,14.90
2012,10,01,11,18,14.80
2012,10,01,11,19,14.70
2012,10,01,11,20,14.60
2012,10,01,11,21,14.50
2012,10,01,11,22,14.40
2012,10,01,11,23,14.30
2012,10,01,11,24,14.20
2012,10,01,11,25,14.20
2012,10,01,11,26,14.20
2012,10,01,11,27,14.30
2012,10,01,11,28,14.40
2012,10,01,11,29,14.50
2012,10,01,11,30,14.50
2012,10,01,11,31,14.60
2012,10,01,11,32,14.60
2012,10,01,11,33,14.60
2012,10,01,11,34,14.50
2012,10,01,11,35,14.50
2012,10,01,11,36,14.50
2012,10,01,11,37,14.50
2012,10,01,11,38,14.50
2012,10,01,11,39,14.40
2012,10,01,11,40,14.30
2012,10,01,11,41,14.20
2012,10,01,11,42,14.20
2012,10,01,11,43,14.10
2012,10,01,11,44,14.10
2012,10,01,11,45,14.10
2012,10,01,11,46,14.10
2012,10,01,11,47,14.00
2012,10,01,11,48,14.00
2012,10,01,11,49,14.00
2012,10,01,11,50,14.10
2012,10,01,11,51,14.10
2012,10,01,11,52,14.10
2012,10,01,11,53,14.10
2012,10,01,11,54,14.10
2012,10,01,11,55,14.20
2012,10,01,11,56,14.30
2012,10,01,11,57,14.30
2012,10,01,11,58,14.20
2012,10,01,11,59,14.10
2012,10,01,12,00,14.10
2012,10,01,12,01,14.10
2012,10,01,12,02,14.10
2012,10,01,12,03,14.10
2012,10,01,12,04,14.10
2012,10,01,12,05,14.10
2012,10,01,12,06,14.10
2012,10,01,12,07,14.20
2012,10,01,12,08,14.20
2012,10,01,12,09,14.20
2012,10,01,12,10,14.20
2012,10,01,12,11,14.30
2012,10,01,12,12,14.30
2012,10,01,12,13,14.40
2012,10,01,12,14,14.50
2012,10,01,12,15,14.50
2012,10,01,12,16,14.60
2012,10,01,12,17,14.80
2012,10,01,12,18,14.80
2012,10,01,12,19,14.80
2012,10,01,12,20,14.80
2012,10,01,12,21,14.80
2012,10,01,12,22,14.80
2012,10,01,12,23,14.90
2012,10,01,12,24,15.00
2012,10,01,12,25,15.00
2012,10,01,12,26,15.00
2012,10,01,12,27,15.00
2012,10,01,12,28,15.00
2012,10,01,12,29,15.00
2012,10,01,12,30,15.00
2012,10,01,12,31,15.10
2012,10,01,12,32,15.20
2012,10,01,12,33,15.10
2012,10,01,12,34,15.00
2012,10,01,12,35,15.00
2012,10,01,12,36,15.00
2012,10,01,12,37,15.00
2012,10,01,12,38,15.10
2012,10,01,12,39,15.00
2012,10,01,12,40,15.00
2012,10,01,12,41,15.00
2012,10,01,12,42,15.00
2012,10,01,12,43,15.00
2012,10,01,12,44,15.00
2012,10,01,12,45,14.90
2012,10,01,12,46,14.90
2012,10,01,12,47,14.80
2012,10,01,12,48,14.80
2012,10,01,12,49,14.80
2012,10,01,12,50,14.90
2012,10,01,12,51,15.00
2012,10,01,12,52,15.00
2012,10,01,12,53,15.00
2012,10,01,12,54,15.00
2012,10,01,12,55,15.00
2012,10,01,12,56,15.00
2012,10,01,12,57,15.00
2012,10,01,12,58,15.00
2012,10,01,12,59,15.00
2012,10,01,13,00,15.10
2012,10,01,13,01,15.20
2012,10,01,13,02,15.30
2012,10,01,13,03,15.40
2012,10,01,13,04,15.50
2012,10,01,13,05,15.50
2012,10,01,13,06,15.60
2012,10,01,13,07,15.60
2012,10,01,13,08,15.60
2012,10,01,13,09,15.60
2012,10,01,13,10,15.60
2012,10,01,13,11,15.60
2012,10,01,13,12,15.70
2012,10,01,13,13,15.70
2012,10,01,13,14,15.70
2012,10,01,13,15,15.80
2012,10,01,13,16,15.80
2012,10,01,13,17,15.80
2012,10,01,13,18,15.80
2012,10,01,13,19,15.80
2012,10,01,13,20,15.80
2012,10,01,13,21,15.90
2012,10,01,13,22,15.90
2012,10,01,13,23,15.90
2012,10,01,13,24,16.00
2012,10,01,13,25,16.10
2012,10,01,13,26,16.20
2012,10,01,13,27,16.20
2012,10,01,13,28,16.30
2012,10,01,13,29,16.30
2012,10,01,13,30,16.30
2012,10,01,13,31,16.30
2012,10,01,13,32,16.20
2012,10,01,13,33,16.20
2012,10,01,13,34,16.20
2012,10,01,13,35,16.20
2012,10,01,13,36,16.20
2012,10,01,13,37,16.20
2012,10,01,13,38,16.20
2012,10,01,13,39,16.10
2012,10,01,13,40,16.10
2012,10,01,13,41,16.10
2012,10,01,13,42,16.10
2012,10,01,13,43,16.10
2012,10,01,13,44,16.10
2012,10,01,13,45,16.10
2012,10,01,13,46,16.00
2012,10,01,13,47,15.90
2012,10,01,13,48,15.80
2012,10,01,13,49,15.80
2012,10,01,13,50,15.70
2012,10,01,13,51,15.70
2012,10,01,13,52,15.60
2012,10,01,13,53,15.60
2012,10,01,13,54,15.60
2012,10,01,13,55,15.60
2012,10,01,13,56,15.60
2012,10,01,13,57,15.60
2012,10,01,13,58,15.60
2012,10,01,13,59,15.50
2012,10,01,14,00,15.40
2012,10,01,14,01,15.40
2012,10,01,14,02,15.30
2012,10,01,14,03,15.30
2012,10,01,14,04,15.30
2012,10,01,14,05,15.30
2012,10,01,14,06,15.30
2012,10,01,14,07,15.30
2012,10,01,14,08,15.30
2012,10,01,14,09,15.30
2012,10,01,14,10,15.30
2012,10,01,14,11,15.30
2012,10,01,14,12,15.30
2012,10,01,14,13,15.40
2012,10,01,14,14,15.40
2012,10,01,14,15,15.40
2012,10,01,14,16,15.40
2012,10,01,14,17,15.40
2012,10,01,14,18,15.40
2012,10,01,14,19,15.40
2012,10,01,14,20,15.40
2012,10,01,14,21,15.40
2012,10,01,14,22,15.40
2012,10,01,14,23,15.40
2012,10,01,14,24,15.40
2012,10,01,14,25,15.40
2012,10,01,14,26,15.30
2012,10,01,14,27,15.30
2012,10,01,14,28,15.30
2012,10,01,14,29,15.30
2012,10,01,14,30,15.30
2012,10,01,14,31,15.40
2012,10,01,14,32,15.40
2012,10,01,14,33,15.40
2012,10,01,14,34,15.50
2012,10,01,14,35,15.60
2012,10,01,14,36,15.60
2012,10,01,14,37,15.70
2012,10,01,14,38,15.70
2012,10,01,14,39,15.80
2012,10,01,14,40,15.90
2012,10,01,14,41,15.90
2012,10,01,14,42,15.90
2012,10,01,14,43,16.10
2012,10,01,14,44,16.20
2012,10,01,14,45,16.20
2012,10,01,14,46,16.30
2012,10,01,14,47,16.40
2012,10,01,14,48,16.50
2012,10,01,14,49,16.60
2012,10,01,14,50,16.60
2012,10,01,14,51,16.70
2012,10,01,14,52,16.70
2012,10,01,14,53,16.80
2012,10,01,14,54,16.80
2012,10,01,14,55,16.80
2012,10,01,14,56,16.80
2012,10,01,14,57,16.80
2012,10,01,14,58,16.70
2012,10,01,14,59,16.70
2012,10,01,15,00,16.70
2012,10,01,15,01,16.80
2012,10,01,15,02,16.80
2012,10,01,15,03,16.90
2012,10,01,15,04,17.00
2012,10,01,15,05,17.20
2012,10,01,15,06,17.30
2012,10,01,15,07,17.40
2012,10,01,15,08,17.60
2012,10,01,15,09,17.70
2012,10,01,15,10,17.90
2012,10,01,15,11,18.10
2012,10,01,15,12,18.20
2012,10,01,15,13,18.30
2012,10,01,15,14,18.40
2012,10,01,15,15,18.40
2012,10,01,15,16,18.10
2012,10,01,15,17,17.60
2012,10,01,15,18,17.20
2012,10,01,15,19,17.00
2012,10,01,15,20,16.80
2012,10,01,15,21,16.70
2012,10,01,15,22,16.60
2012,10,01,15,23,16.50
2012,10,01,15,24,16.40
2012,10,01,15,25,16.40
2012,10,01,15,26,16.40
2012,10,01,15,27,16.30
2012,10,01,15,28,16.30
2012,10,01,15,29,16.40
2012,10,01,15,30,16.50
2012,10,01,15,31,16.60
2012,10,01,15,32,16.50
2012,10,01,15,33,16.50
2012,10,01,15,34,16.40
2012,10,01,15,35,16.40
2012,10,01,15,36,16.30
2012,10,01,15,37,16.30
2012,10,01,15,38,16.30
2012,10,01,15,39,16.30
2012,10,01,15,40,16.30
2012,10,01,15,41,16.30
2012,10,01,15,42,16.30
2012,10,01,15,43,16.30
2012,10,01,15,44,16.40
2012,10,01,15,45,16.40
2012,10,01,15,46,16.50
2012,10,01,15,47,16.60
2012,10,01,15,48,16.60
2012,10,01,15,49,16.70
2012,10,01,15,50,16.80
2012,10,01,15,51,16.90
2012,10,01,15,52,17.10
2012,10,01,15,53,17.30
2012,10,01,15,54,17.40
2012,10,01,15,55,17.50
2012,10,01,15,56,17.70
2012,10,01,15,57,17.80
2012,10,01,15,58,17.90
2012,10,01,15,59,18.00
2012,10,01,16,00,18.10
2012,10,01,16,01,18.30
2012,10,01,16,02,18.50
2012,10,01,16,03,18.80
2012,10,01,16,04,19.20
2012,10,01,16,05,19.60
2012,10,01,16,06,20.00
2012,10,01,16,07,20.20
2012,10,01,16,08,20.50
2012,10,01,16,09,20.70
2012,10,01,16,10,20.90
2012,10,01,16,11,21.10
2012,10,01,16,12,21.30
2012,10,01,16,13,21.40
2012,10,01,16,14,21.50
2012,10,01,16,15,21.50
2012,10,01,16,16,21.60
2012,10,01,16,17,21.50
2012,10,01,16,18,21.50
2012,10,01,16,19,21.40
2012,10,01,16,20,21.40
2012,10,01,16,21,21.40
2012,10,01,16,22,21.30
2012,10,01,16,23,21.30
2012,10,01,16,24,21.30
2012,10,01,16,25,21.20
2012,10,01,16,26,21.20
2012,10,01,16,27,21.20
2012,10,01,16,28,21.20
2012,10,01,16,29,21.20
2012,10,01,16,30,21.20
2012,10,01,16,31,21.20
2012,10,01,16,32,21.10
2012,10,01,16,33,21.10
2012,10,01,16,34,21.10
2012,10,01,16,35,21.10
2012,10,01,16,36,21.00
2012,10,01,16,37,21.00
2012,10,01,16,38,21.00
2012,10,01,16,39,21.00
2012,10,01,16,40,20.90
2012,10,01,16,41,20.90
2012,10,01,16,42,20.90
2012,10,01,16,43,20.90
2012,10,01,16,44,20.90
2012,10,01,16,45,20.80
2012,10,01,16,46,20.80
2012,10,01,16,47,20.80
2012,10,01,16,48,20.70
2012,10,01,16,49,20.70
2012,10,01,16,50,20.70
2012,10,01,16,51,20.60
2012,10,01,16,52,20.60
2012,10,01,16,53,20.60
2012,10,01,16,54,20.60
2012,10,01,16,55,20.60
2012,10,01,16,56,20.50
2012,10,01,16,57,20.50
2012,10,01,16,58,20.50
2012,10,01,16,59,20.50
2012,10,01,17,00,20.50
2012,10,01,17,01,20.50
2012,10,01,17,02,20.50
2012,10,01,17,03,20.60
2012,10,01,17,04,20.60
2012,10,01,17,05,20.60
2012,10,01,17,06,20.60
2012,10,01,17,07,20.70
2012,10,01,17,08,20.70
2012,10,01,17,09,20.80
2012,10,01,17,10,20.80
2012,10,01,17,11,20.80
2012,10,01,17,12,20.80
2012,10,01,17,13,20.90
2012,10,01,17,14,20.90
2012,10,01,17,15,20.90
2012,10,01,17,16,20.90
2012,10,01,17,17,20.90
2012,10,01,17,18,20.90
2012,10,01,17,19,20.80
2012,10,01,17,20,20.80
2012,10,01,17,21,20.80
2012,10,01,17,22,20.80
2012,10,01,17,23,20.80
2012,10,01,17,24,20.80
2012,10,01,17,25,20.80
2012,10,01,17,26,20.80
2012,10,01,17,27,20.80
2012,10,01,17,28,20.80
2012,10,01,17,29,20.80
2012,10,01,17,30,20.80
2012,10,01,17,31,20.70
2012,10,01,17,32,20.70
2012,10,01,17,33,20.70
2012,10,01,17,34,20.70
2012,10,01,17,35,20.60